軌道要素
Epoch 2015 Feb. 27.0 TT = JDT 2457080.5
T 2015 Feb. 15.70597 TT MPCW
q 1.5874565 (2000.0) P Q
n 0.02641721 Peri. 167.76985 -0.98620882 +0.15134842
a 11.1654967 Node 21.28839 -0.16309971 -0.81998588
e 0.8578248 Incl. 10.63058 -0.02811840 -0.55201161
P 37.3
From 110 observations 2014 Oct. 25-2015 June 8, mean residual 0".5.
|